Terminal Aerodrome Forecast
Issued by NWS

Home | Current Version | Previous Version | Text Only | Print | Product List | Glossary On
Versions: 1 2 3 4 5 6 7 8 9 10 11 12 13 14 15 16 17 18 19 20 21 22 23 24
000
FTUS46 KLOX 171700
TAFLAX
TAF
KLAX 171732Z 1718/1824 26008KT P6SM FEW010 SCT100
     FM172100 27015KT P6SM SCT100
     FM180400 26007KT P6SM SKC
     FM180700 VRB03KT 5SM BR OVC010
     FM181700 23006KT P6SM SCT015
     FM182100 26011KT P6SM SCT100=

USA.gov is the U.S. government's official web portal to all federal, state and local government web resources and services.